This is the latest recevied weather packets stored in our database for station/object WD4IXD-WX. If no packets are shown the sender has not sent any weather packets the latest 10 day(s).
| Time | Temp. | Humidity | Pressure | Rain* | Wind** | Luminosity | Snow |
|---|---|---|---|---|---|---|---|
| 1778085004 | -2.78° C | 85% | 1016.5 hPa | 0 mm | - | 364 W/m² | - |
| 1778084704 | -3.33° C | 85% | 1016.5 hPa | 0 mm | - | 359 W/m² | - |
| 1778084404 | -3.33° C | 86% | 1016.4 hPa | 0 mm | - | 318 W/m² | - |
| 1778084103 | -3.33° C | 87% | 1016.4 hPa | 0 mm | - | 285 W/m² | - |
| 1778083804 | -3.89° C | 86% | 1016.2 hPa | 0 mm | - | 193 W/m² | - |
| 1778083504 | -3.89° C | 87% | 1016.1 hPa | 0 mm | - | 153 W/m² | - |
| 1778083204 | -4.44° C | 87% | 1016.3 hPa | 0 mm | - | 153 W/m² | - |
| 1778082904 | -4.44° C | 88% | 1016.4 hPa | 0 mm | - | 142 W/m² | - |
| 1778082604 | -5° C | 88% | 1016.5 hPa | 0 mm | - | 149 W/m² | - |
| 1778082304 | -5.56° C | 88% | 1016.4 hPa | 0 mm | - | 149 W/m² | - |
| 1778082004 | -5.56° C | 89% | 1016.4 hPa | 0 mm | - | 139 W/m² | - |
| 1778081704 | -5.56° C | 89% | 1016.2 hPa | 0 mm | - | 128 W/m² | - |
| 1778081404 | -6.11° C | 89% | 1016.3 hPa | 0 mm | - | 118 W/m² | - |
| 1778081103 | -6.11° C | 89% | 1016.3 hPa | 0 mm | - | 116 W/m² | - |
| 1778080804 | -6.11° C | 89% | 1016.3 hPa | 0 mm | - | 97 W/m² | - |
| 1778080503 | -6.11° C | 89% | 1016.2 hPa | 0 mm | - | 76 W/m² | - |
| 1778080204 | -6.11° C | 89% | 1016.2 hPa | 0 mm | - | 67 W/m² | - |
| 1778079904 | -6.11° C | 89% | 1016.1 hPa | 0 mm | - | 67 W/m² | - |
| 1778079604 | -6.67° C | 89% | 1016 hPa | 0 mm | - | 69 W/m² | - |
| 1778079304 | -6.67° C | 89% | 1016 hPa | 0 mm | - | 47 W/m² | - |
| 1778079004 | -6.67° C | 89% | 1015.9 hPa | 0 mm | - | 54 W/m² | - |
| 1778078704 | -6.67° C | 89% | 1015.8 hPa | 0 mm | - | 70 W/m² | - |
| 1778078404 | -6.67° C | 89% | 1015.7 hPa | 0 mm | - | 76 W/m² | - |
| 1778078104 | -6.67° C | 89% | 1015.6 hPa | 0 mm | - | 83 W/m² | - |
| 1778077804 | -6.67° C | 89% | 1015.6 hPa | 0 mm | - | 91 W/m² | - |
* Rain latest hour (hover to see other rain measurements)
** Current wind speed in m/s (hover to see current wind gust speed)